Weather History for Branson, MO

Change the Weather History Date:

Tuesday, May 14, 2013

  Actual Average (KHRO) Record (KHRO)
Temperature  
Mean Temperature 76 °F 65 °F  
Max Temperature 86 °F 76 °F 96 °F (1911)
Min Temperature 66 °F 55 °F 34 °F (1910)
Degree Days  
Heating Degree Days 0 3  
Month to date heating degree days 49  
Since 1 July heating degree days 3970  
Cooling Degree Days 11 3  
Month to date cooling degree days 32  
Year to date cooling degree days 69  
Growing Degree Days 26 (Base 50)    
Moisture  
Dew Point 49 °F    
Average Humidity 44    
Maximum Humidity 56    
Minimum Humidity 25    
Precipitation  
Precipitation 0.00 in 0.16 in 2.64 in (1956)
Month to date precipitation 2.30  
Year to date precipitation 15.61  
Snow  
Snow 0.00 in 0.00 in - ()
Month to date snowfall 0.0  
Since 1 July snowfall 11.5  
Snow Depth -    
Sea Level Pressure  
Sea Level Pressure 30.03 in    
Wind  
Wind Speed 9 mph (SW)    
Max Wind Speed 14 mph    
Max Gust Speed 24 mph    
Visibility 10 miles    
Events      
T = Trace of Precipitation, MM = Missing Value Source: NWS Daily Summary

Daily Weather History Graph

Daily Weather History Graph

Search for Another Location

Airport:

Trip Planner

Search our weather history database for the weather conditions in past years. The results will help you decide how hot, cold, wet, or windy it might be!

Date:

Astronomy

May. 14, 2013 Rise Set
Actual Time 6:06 AM CDT 8:12 PM CDT
Civil Twilight 5:37 AM CDT 8:41 PM CDT
Nautical Twilight 5:02 AM CDT 9:16 PM CDT
Astronomical Twilight 4:24 AM CDT 9:54 PM CDT
Moon 9:46 AM CDT (5/14) No Moon Set
Length of Visible Light 15h 03m
Length of Day
14h 05m
Waxing Crescent, 19% of the Moon is Illuminated
May 14
Waxing Crescent
May 17
First Quarter
May 24
Full
May 31
Last Quarter
Jun 8
New

Hourly Weather History & Observations

Time (CDT) Temp. Dew Point Humidity Pressure Visibility Wind Dir Wind Speed Gust Speed Precip Events Conditions
12:15 AM 66.2 °F 50.0 °F 56% 30.07 in 10.0 mi South 4.6 mph - N/A   Clear
12:35 AM 66.2 °F 50.0 °F 56% 30.07 in 10.0 mi SSW 6.9 mph - N/A   Clear
12:55 AM 68.0 °F 50.0 °F 52% 30.06 in 10.0 mi SSW 8.1 mph - N/A   Clear
1:15 AM 68.0 °F 50.0 °F 52% 30.05 in 10.0 mi SW 8.1 mph - N/A   Clear
1:35 AM 68.0 °F 50.0 °F 52% 30.05 in 10.0 mi SW 8.1 mph - N/A   Clear
1:55 AM 68.0 °F 50.0 °F 52% 30.04 in 10.0 mi SW 8.1 mph - N/A   Clear
2:15 AM 66.2 °F 50.0 °F 56% 30.04 in 10.0 mi SW 9.2 mph - N/A   Clear
2:35 AM 66.2 °F 48.2 °F 52% 30.04 in 10.0 mi SW 9.2 mph 16.1 mph N/A   Clear
2:55 AM 66.2 °F 48.2 °F 52% 30.03 in 10.0 mi SW 9.2 mph - N/A   Clear
3:15 AM 66.2 °F 48.2 °F 52% 30.03 in 10.0 mi SW 11.5 mph 16.1 mph N/A   Clear
3:35 AM 66.2 °F 48.2 °F 52% 30.03 in 10.0 mi SW 12.7 mph 17.3 mph N/A   Clear
3:55 AM 68.0 °F 48.2 °F 49% 30.03 in 10.0 mi SW 11.5 mph 23.0 mph N/A   Clear
4:15 AM 68.0 °F 46.4 °F 46% 30.03 in 10.0 mi SW 11.5 mph 19.6 mph N/A   Clear
4:35 AM 68.0 °F 46.4 °F 46% 30.03 in 10.0 mi SW 11.5 mph 18.4 mph N/A   Clear
4:55 AM 68.0 °F 46.4 °F 46% 30.03 in 10.0 mi SW 11.5 mph 19.6 mph N/A   Clear
5:15 AM 68.0 °F 46.4 °F 46% 30.03 in 10.0 mi SW 11.5 mph 18.4 mph N/A   Clear
5:35 AM 68.0 °F 46.4 °F 46% 30.03 in 10.0 mi SW 12.7 mph 18.4 mph N/A   Clear
5:55 AM 68.0 °F 46.4 °F 46% 30.04 in 10.0 mi SW 11.5 mph 19.6 mph N/A   Clear
6:15 AM 68.0 °F 46.4 °F 46% 30.04 in 10.0 mi SW 11.5 mph 19.6 mph N/A   Clear
6:35 AM 68.0 °F 46.4 °F 46% 30.04 in 10.0 mi SW 12.7 mph 23.0 mph N/A   Clear
7:50 AM 68.0 °F 46.4 °F 46% 30.05 in 10.0 mi WSW 12.7 mph 20.7 mph N/A   Partly Cloudy
8:55 AM 71.6 °F 48.2 °F 43% 30.07 in 10.0 mi WSW 13.8 mph 24.2 mph N/A   Partly Cloudy
9:45 AM 75.2 °F 50.0 °F 41% 30.07 in 10.0 mi WSW 11.5 mph 23.0 mph N/A   Partly Cloudy
10:45 AM 77.0 °F 50.0 °F 39% 30.07 in 10.0 mi West 10.4 mph 24.2 mph N/A   Partly Cloudy
11:48 AM 80.6 °F 50.0 °F 34% 30.07 in 10.0 mi West 12.7 mph 24.2 mph N/A   Partly Cloudy
12:45 PM 82.4 °F 50.0 °F 32% 30.06 in 10.0 mi WSW 11.5 mph 20.7 mph N/A   Partly Cloudy
1:47 PM 86.0 °F 50.0 °F 29% 30.04 in 10.0 mi WSW 11.5 mph 18.4 mph N/A   Partly Cloudy
2:57 PM 86.0 °F 50.0 °F 29% 30.03 in 10.0 mi SW 13.8 mph 20.7 mph N/A   Partly Cloudy
3:55 PM 86.0 °F 46.4 °F 25% 30.02 in 10.0 mi WSW 12.7 mph 23.0 mph N/A   Partly Cloudy
4:46 PM 86.0 °F 48.2 °F 27% 30.01 in 10.0 mi WSW 8.1 mph 18.4 mph N/A   Partly Cloudy
5:45 PM 86.0 °F 50.0 °F 29% 30.00 in 10.0 mi WSW 6.9 mph - N/A   Clear
6:45 PM 84.2 °F 48.2 °F 29% 29.99 in 10.0 mi WSW 5.8 mph - N/A   Clear
7:45 PM 78.8 °F 48.2 °F 34% 29.99 in 10.0 mi Calm Calm - N/A   Clear
8:45 PM 75.2 °F 50.0 °F 41% 30.00 in 10.0 mi South 4.6 mph - N/A   Clear
9:15 PM 73.4 °F 50.0 °F 44% 30.00 in 10.0 mi South 4.6 mph - N/A   Clear
9:35 PM 73.4 °F 50.0 °F 44% 30.01 in 10.0 mi South 3.5 mph - N/A   Clear
9:55 PM 73.4 °F 50.0 °F 44% 30.01 in 10.0 mi South 4.6 mph - N/A   Clear
10:15 PM 73.4 °F 50.0 °F 44% 30.01 in 10.0 mi South 5.8 mph - N/A   Clear
10:35 PM 73.4 °F 50.0 °F 44% 30.01 in 10.0 mi South 5.8 mph - N/A   Clear
11:15 PM 71.6 °F 51.8 °F 50% 30.01 in 10.0 mi SSW 9.2 mph - N/A   Clear
11:35 PM 71.6 °F 51.8 °F 50% 30.02 in 10.0 mi SSW 9.2 mph - N/A   Clear
11:55 PM 71.6 °F 51.8 °F 50% 30.01 in 10.0 mi SSW 8.1 mph - N/A   Clear